| time (UTC) | temp C | wind direction | speed KPH | gust KPH | rain 1hr cm | rain 24hr cm | rain mn cm | humidity % | barometer mb |
| 20260507023020 | 18 | 121 | 0.0 | 3.2 | 0.00 | 0.00 | 0.00 | 80 | 1014.4 |
| 20260507021525 | 18 | 146 | 0.0 | 3.2 | 0.00 | 0.00 | 0.00 | 80 | 1014.4 |
| 20260507020025 | 18 | 123 | 1.6 | 4.8 | 0.00 | 0.00 | 0.00 | 79 | 1014.3 |
| 20260507014540 | 18 | 77 | 0.0 | 6.4 | 0.00 | 0.00 | 0.00 | 78 | 1013.9 |
| 20260507013017 | 18 | 143 | 0.0 | 3.2 | 0.00 | 0.00 | 0.00 | 78 | 1013.7 |
| 20260507011529 | 18 | 146 | 1.6 | 3.2 | 0.00 | 0.00 | 0.00 | 77 | 1013.5 |
| 20260507010029 | 19 | 145 | 1.6 | 9.7 | 0.00 | 0.00 | 0.00 | 76 | 1013.5 |
| 20260507004512 | 20 | 121 | 0.0 | 6.4 | 0.00 | 0.00 | 0.00 | 76 | 1013.2 |
| 20260507003014 | 20 | 118 | 1.6 | 9.7 | 0.00 | 0.00 | 0.00 | 75 | 1013.1 |
| 20260507001534 | 20 | 146 | 0.0 | 11.3 | 0.00 | 0.00 | 0.00 | 74 | 1013.2 |
| 20260507000027 | 21 | 82 | 1.6 | 9.7 | 0.00 | 0.00 | 0.00 | 72 | 1013.0 |
| 20260506234528 | 21 | 136 | 1.6 | 8.0 | 0.00 | 0.00 | 0.00 | 71 | 1012.8 |
| 20260506233015 | 22 | 191 | 1.6 | 6.4 | 0.00 | 0.00 | 0.00 | 69 | 1012.4 |
| 20260506231520 | 23 | 51 | 1.6 | 6.4 | 0.00 | 0.00 | 0.00 | 67 | 1011.9 |
| 20260506230023 | 25 | 129 | 0.0 | 9.7 | 0.00 | 0.00 | 0.00 | 65 | 1011.8 |
| 20260506224527 | 25 | 112 | 3.2 | 8.0 | 0.00 | 0.00 | 0.00 | 66 | 1011.6 |
| 20260506223017 | 25 | 86 | 1.6 | 8.0 | 0.00 | 0.00 | 0.00 | 64 | 1011.5 |
| 20260506221513 | 26 | 56 | 3.2 | 14.5 | 0.00 | 0.00 | 0.00 | 61 | 1011.5 |
| 20260506220022 | 27 | 154 | 1.6 | 11.3 | 0.00 | 0.00 | 0.00 | 61 | 1011.2 |
| 20260506214525 | 28 | 98 | 1.6 | 4.8 | 0.00 | 0.00 | 0.00 | 60 | 1010.8 |
| 20260506213028 | 30 | 15 | 1.6 | 6.4 | 0.00 | 0.00 | 0.00 | 62 | 1010.8 |
| 20260506211519 | 29 | 107 | 1.6 | 4.8 | 0.00 | 0.00 | 0.00 | 63 | 1011.0 |
| 20260506210019 | 30 | 89 | 1.6 | 4.8 | 0.00 | 0.00 | 0.00 | 63 | 1011.0 |
| 20260506204522 | 29 | 39 | 1.6 | 3.2 | 0.00 | 0.00 | 0.00 | 67 | 1011.0 |
| 20260506203036 | 28 | 102 | 0.0 | 3.2 | 0.00 | 0.00 | 0.00 | 68 | 1011.3 |
| 20260506201531 | 28 | 81 | 1.6 | 4.8 | 0.00 | 0.00 | 0.00 | 68 | 1011.5 |
| 20260506200017 | 27 | 84 | 1.6 | 6.4 | 0.00 | 0.00 | 0.00 | 72 | 1011.5 |
| 20260506194521 | 26 | 128 | 1.6 | 4.8 | 0.00 | 0.00 | 0.00 | 77 | 1011.7 |
| 20260506193026 | 26 | 146 | 1.6 | 4.8 | 0.00 | 0.00 | 0.00 | 76 | 1011.9 |
| 20260506191527 | 27 | 92 | 1.6 | 3.2 | 0.00 | 0.00 | 0.00 | 73 | 1012.0 |
| 20260506190028 | 27 | 19 | 0.0 | 3.2 | 0.00 | 0.00 | 0.00 | 72 | 1011.8 |
| 20260506184521 | 26 | 70 | 1.6 | 3.2 | 0.00 | 0.00 | 0.00 | 76 | 1012.0 |
| 20260506183022 | 25 | 68 | 1.6 | 4.8 | 0.00 | 0.00 | 0.00 | 81 | 1012.3 |
| 20260506181528 | 23 | 101 | 1.6 | 3.2 | 0.00 | 0.00 | 0.00 | 82 | 1012.5 |
| 20260506180029 | 23 | 96 | 1.6 | 3.2 | 0.00 | 0.00 | 0.00 | 83 | 1012.8 |
| 20260506174520 | 23 | 95 | 0.0 | 3.2 | 0.00 | 0.00 | 0.00 | 82 | 1012.8 |
| 20260506173027 | 25 | 79 | 0.0 | 3.2 | 0.00 | 0.00 | 0.00 | 81 | 1012.7 |
| 20260506171527 | 26 | 89 | 0.0 | 4.8 | 0.00 | 0.00 | 0.00 | 80 | 1012.6 |
| 20260506170026 | 26 | 105 | 0.0 | 3.2 | 0.00 | 0.00 | 0.00 | 78 | 1012.5 |
| 20260506164527 | 26 | 301 | 0.0 | 0.0 | 0.00 | 0.00 | 0.00 | 77 | 1012.5 |
| 20260506163025 | 26 | 284 | 0.0 | 3.2 | 0.00 | 0.00 | 0.00 | 78 | 1012.5 |
| 20260506161524 | 25 | 124 | 0.0 | 3.2 | 0.00 | 0.00 | 0.00 | 81 | 1012.2 |
| 20260506160028 | 25 | 183 | 0.0 | 3.2 | 0.00 | 0.00 | 0.00 | 82 | 1012.2 |
| 20260506154528 | 24 | 236 | 0.0 | 3.2 | 0.00 | 0.00 | 0.00 | 85 | 1011.9 |
| 20260506153028 | 23 | 287 | 0.0 | 0.0 | 0.00 | 0.00 | 0.00 | 87 | 1011.9 |
| 20260506151526 | 23 | 287 | 0.0 | 1.6 | 0.00 | 0.00 | 0.00 | 89 | 1011.8 |
| 20260506150026 | 23 | 248 | 0.0 | 0.0 | 0.00 | 0.00 | 0.00 | 89 | 1011.9 |
| 20260506144533 | 23 | 248 | 0.0 | 0.0 | 0.00 | 0.00 | 0.00 | 89 | 1011.7 |
| 20260506143032 | 23 | 215 | 0.0 | 3.2 | 0.00 | 0.00 | 0.00 | 89 | 1011.7 |
| 20260506141518 | 23 | 228 | 0.0 | 3.2 | 0.00 | 0.00 | 0.00 | 89 | 1011.5 |
| 20260506140025 | 23 | 309 | 0.0 | 3.2 | 0.00 | 0.00 | 0.00 | 89 | 1011.0 |
| 20260506134527 | 23 | 306 | 1.6 | 4.8 | 0.00 | 0.00 | 0.00 | 89 | 1010.7 |
| 20260506133030 | 23 | 301 | 0.0 | 4.8 | 0.00 | 0.00 | 0.00 | 89 | 1010.2 |
| 20260506131532 | 23 | 306 | 1.6 | 3.2 | 0.00 | 0.00 | 0.00 | 90 | 1010.1 |
| 20260506130024 | 23 | 272 | 0.0 | 3.2 | 0.00 | 0.00 | 0.00 | 90 | 1010.1 |
| 20260506124524 | 23 | 331 | 0.0 | 4.8 | 0.00 | 0.00 | 0.00 | 90 | 1009.9 |
| 20260506123029 | 22 | 302 | 1.6 | 4.8 | 0.00 | 0.00 | 0.00 | 90 | 1009.7 |
| 20260506121516 | 22 | 281 | 0.0 | 3.2 | 0.00 | 0.00 | 0.00 | 90 | 1009.7 |
| 20260506120022 | 22 | 312 | 0.0 | 4.8 | 0.00 | 0.00 | 0.00 | 90 | 1009.7 |
| 20260506114528 | 22 | 288 | 0.0 | 1.6 | 0.00 | 0.00 | 0.00 | 91 | 1009.8 |
| 20260506113026 | 22 | 315 | 0.0 | 0.0 | 0.00 | 0.00 | 0.00 | 91 | 1009.7 |
| 20260506111528 | 22 | 317 | 0.0 | 3.2 | 0.00 | 0.00 | 0.00 | 91 | 1009.7 |
| 20260506110022 | 22 | 271 | 0.0 | 3.2 | 0.00 | 0.00 | 0.00 | 91 | 1009.8 |
| 20260506104527 | 22 | 312 | 0.0 | 3.2 | 0.00 | 0.00 | 0.00 | 91 | 1009.8 |
| 20260506103033 | 22 | 339 | 0.0 | 6.4 | 0.00 | 0.00 | 0.00 | 91 | 1009.8 |
| 20260506101541 | 22 | 336 | 1.6 | 3.2 | 0.00 | 0.00 | 0.00 | 91 | 1009.7 |
| 20260506100028 | 22 | 282 | 1.6 | 6.4 | 0.00 | 0.00 | 0.00 | 91 | 1009.8 |
| 20260506094525 | 22 | 316 | 1.6 | 8.0 | 0.00 | 0.00 | 0.00 | 91 | 1009.9 |
| 20260506093004 | 23 | 281 | 1.6 | 9.7 | 0.00 | 0.00 | 0.00 | 90 | 1009.8 |
| 20260506091513 | 23 | 313 | 1.6 | 9.7 | 0.00 | 0.00 | 0.00 | 90 | 1009.6 |
| 20260506090016 | 23 | 302 | 3.2 | 6.4 | 0.00 | 0.00 | 0.00 | 89 | 1009.5 |
| 20260506084520 | 23 | 318 | 1.6 | 12.9 | 0.00 | 0.00 | 0.00 | 89 | 1009.4 |
| 20260506083006 | 23 | 262 | 3.2 | 11.3 | 0.00 | 0.00 | 0.00 | 89 | 1009.3 |
| 20260506081508 | 23 | 302 | 3.2 | 9.7 | 0.00 | 0.00 | 0.00 | 89 | 1009.5 |
| 20260506073038 | 23 | 319 | 3.2 | 11.3 | 0.00 | 0.00 | 0.00 | 88 | 1009.9 |
| 20260506071505 | 23 | 271 | 4.8 | 8.0 | 0.00 | 0.00 | 0.00 | 87 | 1010.1 |
| 20260506061526 | 23 | 359 | 0.0 | 11.3 | 0.00 | 0.00 | 0.00 | 86 | 1010.0 |
| 20260506044531 | 25 | 269 | 3.2 | 12.9 | 0.00 | 0.00 | 0.00 | 84 | 1009.9 |
| 20260506043016 | 25 | 270 | 3.2 | 9.7 | 0.00 | 0.00 | 0.00 | 84 | 1009.6 |
| 20260506041523 | 25 | 289 | 1.6 | 4.8 | 0.00 | 0.00 | 0.00 | 85 | 1009.5 |
| 20260506040028 | 25 | 254 | 1.6 | 3.2 | 0.00 | 0.00 | 0.00 | 84 | 1009.4 |
| 20260506034527 | 25 | 270 | 0.0 | 4.8 | 0.00 | 0.00 | 0.00 | 83 | 1009.4 |
| 20260506033016 | 24 | 283 | 1.6 | 3.2 | 0.00 | 0.00 | 0.00 | 84 | 1009.0 |
| 20260506031519 | 24 | 240 | 0.0 | 3.2 | 0.00 | 0.00 | 0.00 | 83 | 1008.8 |
| 20260506030026 | 24 | 233 | 0.0 | 0.0 | 0.00 | 0.00 | 0.00 | 81 | 1008.6 |
| 20260506024529 | 25 | 253 | 0.0 | 3.2 | 0.00 | 0.00 | 0.00 | 80 | 1008.3 |